Total_Precipitation_Accumulation
0.90 0.91 0.90 0.85 0.84 0.83 0.82 0.79 0.83 0.90 0.90 0.93 1.10 1.16 1.23 1.31 1.51 1.77 1.95 1.96 1.88 1.88 1.85 1.93 2.09 2.18 2.38 2.34 2.25 2.14 2.02 1.86 1.73 1.56 1.35 1.19 1.24 1.30 1.40 1.49 1.49 1.39 1.22
1.01 1.02 0.94 0.84 0.78 0.77 0.74 0.67 0.68 0.67 0.66 0.77 0.91 0.96 1.01 1.05 1.23 1.53 1.73 1.77 1.75 1.66 1.64 1.76 1.97 2.13 2.34 2.42 2.36 2.22 2.13 2.00 1.90 1.83 1.65 1.43 1.31 1.35 1.49 1.59 1.55 1.47 1.39
1.05 0.96 0.88 0.79 0.68 0.62 0.55 0.51 0.58 0.60 0.67 0.79 0.87 0.92 0.95 1.01 1.05 1.16 1.32 1.44 1.43 1.37 1.41 1.47 1.52 1.72 2.00 2.16 2.18 2.19 2.23 2.21 2.18 2.03 1.83 1.69 1.54 1.44 1.53 1.59 1.57 1.61 1.47
1.18 1.08 0.97 0.85 0.73 0.65 0.57 0.53 0.53 0.56 0.63 0.72 0.79 0.86 0.92 0.97 0.98 0.99 1.02 1.09 1.11 1.16 1.22 1.26 1.31 1.36 1.59 1.75 1.84 2.02 2.25 2.27 2.30 2.22 2.00 1.82 1.68 1.56 1.63 1.74 1.81 1.79 1.63
1.20 1.17 1.03 0.85 0.72 0.65 0.60 0.53 0.52 0.54 0.55 0.63 0.70 0.72 0.77 0.86 0.95 0.97 0.85 0.81 0.91 1.02 1.03 1.00 1.02 1.10 1.23 1.33 1.39 1.74 2.09 2.27 2.27 2.22 2.08 1.96 1.71 1.58 1.46 1.48 1.70 1.95 1.93
1.08 1.06 0.84 0.67 0.54 0.50 0.51 0.50 0.48 0.47 0.52 0.57 0.56 0.59 0.70 0.74 0.88 0.87 0.71 0.70 0.75 0.85 0.94 0.92 0.81 0.80 0.84 0.92 1.00 1.17 1.45 1.69 1.97 2.15 2.07 1.87 1.65 1.55 1.51 1.54 1.60 1.73 1.88
0.73 0.71 0.61 0.50 0.47 0.50 0.52 0.47 0.46 0.47 0.48 0.50 0.49 0.50 0.55 0.68 0.73 0.60 0.58 0.62 0.70 0.76 0.81 0.87 0.79 0.68 0.75 0.80 0.90 0.97 0.98 1.06 1.34 1.68 1.81 1.75 1.81 1.69 1.65 1.59 1.56 1.65 1.69
0.48 0.49 0.44 0.41 0.42 0.45 0.46 0.45 0.52 0.58 0.55 0.55 0.56 0.55 0.54 0.59 0.59 0.48 0.52 0.54 0.60 0.66 0.75 0.84 0.89 0.81 0.81 0.91 0.91 0.95 0.90 0.86 1.06 1.06 1.23 1.52 1.69 1.78 1.75 1.83 1.99 1.96 1.82
0.19 0.21 0.22 0.21 0.23 0.24 0.25 0.32 0.42 0.49 0.53 0.56 0.60 0.60 0.55 0.52 0.54 0.46 0.48 0.54 0.59 0.63 0.66 0.72 0.81 0.78 0.92 1.01 1.01 1.13 1.11 0.98 1.11 1.17 1.20 1.24 1.36 1.52 1.64 1.71 1.80 1.86 1.83
0.08 0.09 0.11 0.12 0.13 0.13 0.15 0.19 0.25 0.26 0.31 0.42 0.45 0.48 0.51 0.50 0.63 0.51 0.51 0.54 0.62 0.72 0.74 0.72 0.86 0.86 0.94 0.93 0.91 1.14 1.15 1.03 0.95 1.02 1.03 1.00 0.94 1.05 1.26 1.43 1.64 1.75 1.72
0.10 0.12 0.12 0.11 0.12 0.12 0.13 0.15 0.17 0.18 0.22 0.26 0.31 0.37 0.44 0.52 0.65 0.62 0.65 0.65 0.71 0.83 0.81 0.74 0.69 0.80 0.69 0.76 0.80 0.84 1.06 1.05 0.95 1.02 1.04 0.98 0.92 0.92 0.99 1.13 1.38 1.60 1.66
0.11 0.11 0.12 0.12 0.12 0.12 0.13 0.15 0.17 0.17 0.18 0.20 0.22 0.28 0.35 0.42 0.50 0.57 0.58 0.62 0.70 0.78 0.82 0.71 0.68 0.76 0.61 0.58 0.60 0.72 0.89 1.01 0.98 1.02 1.02 1.00 0.92 0.84 0.87 0.97 1.08 1.18 1.24
0.11 0.11 0.12 0.14 0.13 0.12 0.14 0.16 0.18 0.18 0.20 0.21 0.24 0.30 0.37 0.43 0.47 0.46 0.44 0.47 0.53 0.61 0.64 0.68 0.67 0.64 0.58 0.53 0.53 0.61 0.69 0.80 0.97 1.01 0.93 0.90 0.84 0.81 0.83 0.86 0.94 1.02 1.08
0.11 0.13 0.14 0.15 0.15 0.15 0.16 0.17 0.19 0.20 0.22 0.25 0.30 0.34 0.40 0.43 0.46 0.44 0.47 0.50 0.49 0.50 0.50 0.50 0.52 0.55 0.58 0.57 0.55 0.57 0.64 0.75 0.83 0.84 0.79 0.77 0.80 0.83 0.89 0.91 0.95 0.99 1.06
0.12 0.13 0.13 0.14 0.15 0.16 0.17 0.17 0.17 0.18 0.22 0.30 0.36 0.40 0.39 0.38 0.34 0.35 0.46 0.56 0.61 0.67 0.72 0.65 0.64 0.65 0.62 0.58 0.55 0.56 0.60 0.66 0.67 0.65 0.65 0.63 0.62 0.69 0.75 0.81 0.90 0.91 0.95
0.17 0.15 0.13 0.13 0.14 0.14 0.15 0.16 0.17 0.18 0.22 0.25 0.26 0.28 0.28 0.29 0.30 0.30 0.36 0.47 0.56 0.68 0.83 0.84 0.88 0.89 0.82 0.73 0.64 0.56 0.53 0.55 0.57 0.61 0.63 0.63 0.60 0.61 0.68 0.71 0.79 0.84 0.85
0.17 0.17 0.14 0.13 0.13 0.15 0.16 0.18 0.20 0.18 0.15 0.16 0.17 0.19 0.26 0.35 0.40 0.43 0.44 0.48 0.51 0.66 0.84 0.89 0.89 0.88 0.80 0.74 0.70 0.61 0.53 0.50 0.53 0.55 0.55 0.59 0.61 0.62 0.67 0.69 0.69 0.74 0.80
0.13 0.15 0.15 0.17 0.18 0.19 0.22 0.25 0.29 0.32 0.30 0.22 0.18 0.18 0.21 0.30 0.35 0.39 0.47 0.57 0.58 0.66 0.77 0.79 0.77 0.65 0.57 0.54 0.51 0.48 0.44 0.42 0.44 0.46 0.45 0.49 0.56 0.59 0.63 0.68 0.70 0.71 0.75
0.09 0.11 0.15 0.22 0.26 0.25 0.27 0.32 0.35 0.30 0.26 0.26 0.23 0.21 0.21 0.24 0.27 0.30 0.39 0.56 0.57 0.52 0.49 0.48 0.46 0.43 0.40 0.42 0.42 0.40 0.39 0.37 0.37 0.38 0.39 0.43 0.48 0.54 0.60 0.65 0.71 0.75 0.75
0.10 0.13 0.16 0.21 0.24 0.24 0.25 0.28 0.29 0.29 0.28 0.30 0.29 0.29 0.29 0.29 0.30 0.32 0.34 0.39 0.38 0.34 0.32 0.33 0.33 0.34 0.36 0.38 0.40 0.41 0.40 0.38 0.39 0.41 0.43 0.48 0.51 0.55 0.61 0.67 0.73 0.78 0.78
0.11 0.14 0.17 0.19 0.21 0.21 0.24 0.27 0.29 0.30 0.31 0.33 0.33 0.34 0.37 0.38 0.37 0.36 0.38 0.38 0.36 0.36 0.36 0.37 0.35 0.34 0.37 0.40 0.43 0.45 0.45 0.44 0.44 0.46 0.49 0.55 0.59 0.61 0.64 0.72 0.80 0.81 0.82
0.13 0.15 0.18 0.21 0.22 0.22 0.24 0.29 0.32 0.32 0.30 0.31 0.32 0.34 0.38 0.41 0.40 0.39 0.39 0.39 0.39 0.39 0.42 0.46 0.45 0.42 0.41 0.45 0.49 0.51 0.53 0.54 0.53 0.51 0.52 0.55 0.60 0.60 0.63 0.72 0.81 0.86 0.88
0.16 0.18 0.21 0.23 0.24 0.24 0.26 0.30 0.33 0.31 0.30 0.31 0.33 0.34 0.35 0.38 0.39 0.40 0.40 0.39 0.39 0.41 0.43 0.46 0.49 0.48 0.45 0.47 0.53 0.59 0.62 0.62 0.61 0.62 0.66 0.67 0.66 0.64 0.65 0.69 0.75 0.82 0.86
0.18 0.22 0.26 0.28 0.30 0.30 0.30 0.33 0.34 0.32 0.33 0.35 0.35 0.35 0.36 0.39 0.38 0.37 0.39 0.41 0.42 0.44 0.45 0.47 0.47 0.45 0.46 0.49 0.53 0.58 0.64 0.64 0.61 0.63 0.67 0.72 0.73 0.72 0.73 0.76 0.82 0.87 0.93
0.22 0.24 0.27 0.29 0.30 0.30 0.32 0.34 0.36 0.35 0.36 0.38 0.39 0.38 0.39 0.41 0.42 0.41 0.43 0.44 0.46 0.48 0.46 0.48 0.49 0.48 0.48 0.50 0.54 0.59 0.70 0.73 0.69 0.67 0.66 0.70 0.74 0.76 0.81 0.89 0.97 1.02 1.06
0.22 0.24 0.27 0.31 0.33 0.33 0.34 0.36 0.38 0.40 0.41 0.42 0.43 0.45 0.46 0.47 0.47 0.47 0.48 0.49 0.50 0.50 0.47 0.48 0.50 0.50 0.52 0.55 0.58 0.66 0.72 0.68 0.67 0.70 0.70 0.73 0.78 0.79 0.82 0.87 0.90 0.95 1.00